Wetbulb
57.39 58.22 59.04 61.18 60.67 60.16 60.22 59.79 59.00 58.08 57.50 57.24 56.88 56.57 55.78 54.43 53.77 53.05 52.73 52.12 51.62 51.81 52.03 52.51 53.45 54.23 55.81 50.88 48.15 53.01 56.37 55.57 52.61 51.05 49.53 48.76 47.54 47.82 45.36 45.95 46.63 45.32 45.86 46.10 46.04 45.27 45.39
55.62 56.15 57.07 57.99 58.73 60.54 60.50 59.90 58.95 58.11 57.39 56.93 56.43 56.11 55.51 54.73 53.72 53.10 52.72 52.38 51.86 51.67 51.56 52.13 53.30 53.89 54.88 44.98 51.98 52.91 51.92 51.38 51.17 49.82 48.49 48.24 47.43 47.91 46.12 45.48 44.57 45.81 45.04 45.21 45.99 45.59 45.48
54.92 55.03 55.70 56.17 56.88 56.12 59.41 59.03 58.74 58.51 57.71 57.09 56.48 56.06 55.38 54.61 54.10 53.14 52.37 52.30 52.09 51.75 50.96 51.94 53.58 54.61 51.83 47.79 52.43 53.42 51.84 50.98 51.08 50.04 48.04 48.80 49.03 46.31 46.88 44.18 46.51 45.55 42.79 45.07 45.61 45.06 43.94
54.83 55.24 54.75 55.72 55.94 55.37 55.79 56.00 58.49 58.43 58.08 57.20 56.87 56.00 54.92 54.21 53.74 53.27 52.61 51.73 51.38 50.79 50.92 52.66 53.32 54.36 48.34 53.56 54.36 51.52 52.31 50.63 51.05 50.52 49.76 50.18 50.29 48.46 47.05 47.98 44.99 42.55 43.54 40.32 44.99 44.57 44.04
52.67 53.19 53.95 54.67 54.80 55.15 55.26 55.20 55.34 57.54 58.25 57.52 56.74 56.07 54.89 53.87 53.25 52.61 51.58 51.04 50.95 50.46 52.42 52.94 53.02 52.56 47.53 52.69 49.42 51.80 51.69 48.66 49.23 49.76 50.29 49.23 49.31 47.06 45.93 42.67 41.77 42.64 38.82 40.94 41.80 44.71 42.59
51.52 52.28 52.98 53.32 53.64 54.01 54.42 54.88 54.77 55.34 55.92 57.32 56.82 56.24 55.09 53.84 52.94 51.72 50.79 50.12 50.75 49.79 52.09 52.52 51.34 47.27 50.82 47.45 49.85 49.44 51.04 49.66 47.84 48.16 46.80 46.79 46.65 43.88 43.96 41.98 36.68 39.44 39.59 40.06 39.52 42.51 42.27
51.19 51.34 52.05 52.47 52.54 52.63 52.98 53.89 54.08 54.66 54.75 56.24 57.02 56.62 55.37 54.04 52.83 50.56 47.63 46.46 48.67 48.25 49.10 49.39 50.99 48.90 46.58 49.61 50.42 48.07 49.63 47.75 47.48 46.73 42.64 45.56 41.93 40.09 42.16 42.93 41.65 39.97 38.70 38.43 41.13 42.61 40.03
51.75 51.47 51.53 51.82 52.28 52.22 52.06 53.29 53.20 53.78 54.66 54.91 56.32 56.32 55.39 54.18 51.99 49.54 46.87 43.16 44.69 46.36 42.53 51.37 50.99 50.39 49.68 49.69 44.69 47.03 49.92 44.67 44.13 41.19 43.91 42.06 39.06 43.10 42.61 41.05 39.65 39.18 38.25 38.78 40.46 41.06 40.19
52.17 52.12 51.48 51.53 51.70 52.25 52.09 52.87 53.05 53.43 54.27 54.15 54.19 55.96 55.01 53.15 50.14 46.84 43.47 43.68 47.81 47.24 39.37 45.58 52.39 49.25 49.37 49.07 45.69 45.43 47.29 45.74 42.72 41.12 41.72 40.04 42.18 43.19 40.62 39.70 38.28 39.32 37.39 37.58 36.25 39.35 41.59
51.92 51.61 51.90 51.41 51.62 52.30 52.43 52.84 53.09 53.29 53.82 53.70 53.74 54.32 53.52 49.69 46.79 44.97 41.72 47.00 47.81 47.32 35.92 42.58 48.48 49.38 50.87 48.14 44.11 49.80 48.52 45.91 42.98 40.45 41.23 40.75 43.14 40.15 39.22 38.81 38.42 36.57 39.08 36.86 36.99 37.04 35.00
51.14 51.29 51.42 51.79 51.94 51.69 51.96 52.17 52.79 52.92 53.41 53.64 52.69 53.80 49.94 52.21 47.45 42.54 45.90 48.24 47.58 45.68 27.43 45.57 46.24 51.38 51.92 44.95 45.83 44.25 48.64 45.31 41.19 40.62 41.00 39.55 39.92 38.76 38.53 38.55 38.64 37.10 38.60 37.52 38.13 37.40 37.43
50.30 50.43 50.83 51.15 51.08 51.19 51.40 51.65 51.78 52.26 53.09 52.75 52.46 53.48 49.83 46.58 46.93 46.45 47.51 47.18 45.62 33.16 26.73 36.84 42.22 41.99 43.20 44.44 42.91 44.87 43.98 46.12 45.27 41.79 41.85 41.19 43.53 41.88 40.71 39.45 38.75 39.05 37.95 39.50 39.98 38.23 32.69
49.05 49.57 49.99 50.41 50.48 50.80 51.02 51.03 51.15 51.51 51.99 51.98 52.16 52.34 49.57 47.43 43.44 48.53 46.52 43.78 29.99 27.25 39.92 35.94 37.50 41.34 41.30 40.39 40.67 41.11 39.98 39.77 38.36 34.75 35.47 38.22 38.88 40.73 40.81 37.55 39.11 38.41 37.52 33.16 31.84 32.10 31.97
48.02 48.39 48.54 49.35 49.82 50.21 50.55 50.59 50.72 50.78 51.39 51.29 51.34 51.33 49.84 49.02 47.86 47.40 45.31 34.64 26.02 36.09 39.90 40.60 40.79 40.21 38.42 40.37 39.87 40.13 39.55 38.04 41.07 40.44 38.78 34.21 31.18 38.00 40.38 38.47 36.99 36.92 36.98 32.98 25.64 29.31 32.54
47.30 48.02 48.04 48.48 48.83 49.57 49.94 50.28 50.38 50.53 50.58 50.70 50.77 51.49 47.13 47.60 48.14 47.25 39.55 29.77 33.30 37.89 42.34 38.71 39.21 36.11 37.48 39.15 39.12 38.83 39.15 39.20 41.13 41.41 36.90 35.77 34.90 40.01 39.28 39.19 38.73 36.78 34.36 38.66 30.53 33.81 30.30
46.32 47.34 47.50 47.68 47.87 48.63 49.28 49.51 50.06 50.11 50.25 50.14 47.53 46.68 45.01 47.90 48.11 43.67 36.15 33.09 36.45 42.88 43.39 41.32 35.75 37.52 34.76 36.16 35.95 37.51 37.86 41.23 40.56 41.97 43.26 38.99 32.29 37.69 37.15 39.05 38.82 38.49 40.68 32.22 34.14 25.44 25.61
45.68 46.40 46.81 47.20 47.33 47.39 47.65 48.82 49.52 49.46 49.70 49.45 46.38 38.72 45.12 47.72 45.02 37.57 30.84 34.50 38.37 43.83 42.76 39.37 37.98 35.44 37.21 36.72 37.08 36.38 36.73 39.45 42.06 40.59 42.62 40.63 37.88 34.42 35.77 34.53 35.37 34.74 33.86 34.24 35.36 34.11 28.09
45.82 46.07 46.17 46.74 47.13 47.17 47.47 48.26 49.10 49.19 48.94 47.53 43.23 32.98 44.86 46.68 32.88 33.83 33.28 37.08 41.07 41.71 44.32 40.39 40.30 39.15 36.18 37.27 35.94 35.86 36.19 38.26 42.63 41.52 37.03 40.02 36.97 31.08 33.11 37.78 39.85 39.37 36.51 35.65 30.72 29.63 32.43
45.35 45.72 46.03 46.33 46.72 46.76 47.81 48.44 48.59 48.40 48.57 45.08 38.10 36.97 44.41 43.71 29.67 31.15 36.39 37.25 40.40 39.77 41.13 39.05 38.11 40.46 40.46 36.80 32.16 36.11 37.80 41.48 41.66 40.29 38.37 38.77 35.01 29.28 29.15 32.63 36.10 34.11 35.56 36.42 36.32 34.11 28.61
45.19 45.45 45.71 46.44 46.54 47.44 47.60 47.65 47.57 47.68 48.27 45.06 38.56 29.17 34.01 38.05 41.61 35.96 35.21 36.43 36.27 42.28 41.89 40.87 40.28 41.18 38.15 34.94 36.79 33.89 36.40 38.85 41.09 40.83 40.41 40.44 35.81 32.91 29.50 31.51 35.28 30.43 34.06 35.88 33.72 28.47 30.21
44.94 45.30 45.71 45.87 46.93 46.19 46.03 45.98 45.19 47.01 47.76 44.72 38.49 33.99 38.45 29.13 32.67 37.45 38.51 37.75 35.77 34.19 40.60 41.49 39.14 38.09 37.00 33.17 34.19 34.86 37.10 37.43 39.20 38.27 38.71 38.13 31.07 33.13 33.10 33.55 34.45 34.23 33.33 34.12 31.50 31.41 28.07
44.76 45.58 46.01 45.59 44.98 44.28 45.06 44.32 45.05 45.26 46.65 41.56 34.73 37.17 41.08 39.85 37.70 35.23 36.98 35.64 35.99 37.49 37.61 36.88 36.99 38.36 38.98 35.61 35.85 34.24 35.65 35.17 33.80 36.20 35.51 37.71 31.90 33.08 29.89 32.86 32.28 30.55 32.55 33.00 32.73 32.87 33.19
44.04 45.40 45.25 44.28 43.07 43.20 43.29 44.24 43.77 45.63 45.42 40.13 41.48 44.85 42.53 38.11 36.31 33.63 36.79 38.49 37.70 39.39 40.52 40.97 40.14 38.91 37.52 39.60 41.16 40.65 40.64 39.05 38.28 35.13 34.84 34.63 32.54 29.98 27.79 31.44 30.56 26.76 30.23 31.79 33.84 34.07 34.10
44.32 45.71 44.06 42.96 42.46 42.46 43.27 44.56 49.69 48.94 45.90 46.73 43.59 44.67 38.74 36.04 36.55 35.60 37.55 39.22 38.63 40.16 38.14 41.47 41.59 39.10 40.14 44.89 43.14 41.03 39.68 39.37 39.11 37.90 38.78 34.09 33.07 31.75 28.71 30.29 20.21 33.52 38.00 37.58 34.51 34.79 37.13
45.03 43.88 43.43 40.22 42.25 42.21 43.91 45.47 48.51 46.50 46.63 45.99 46.82 44.51 40.83 37.57 38.71 36.20 38.08 38.70 39.68 41.05 38.61 40.48 41.56 42.51 44.03 40.60 33.40 28.96 29.92 31.55 33.86 36.48 36.78 37.55 33.73 29.33 27.02 26.77 31.03 31.48 34.47 34.71 33.88 33.66 38.75
44.01 43.64 41.97 40.77 42.06 43.05 43.56 44.90 47.06 47.46 47.77 46.67 46.71 48.92 47.16 40.62 36.22 40.12 38.72 39.56 37.56 35.03 36.83 38.50 40.81 42.38 42.17 36.56 31.73 25.16 22.82 27.29 26.40 29.70 36.18 35.12 35.71 32.03 29.04 24.38 21.73 33.27 37.71 38.76 37.67 28.78 38.40
43.28 43.07 42.03 41.45 43.76 43.57 44.21 44.34 44.82 45.44 46.01 45.48 44.54 50.57 46.10 38.25 43.04 42.37 39.11 38.71 40.61 37.63 33.84 35.38 35.42 36.75 40.86 33.69 29.30 27.70 26.90 33.03 25.83 25.85 26.15 28.31 30.38 27.76 28.37 26.43 30.69 37.49 37.57 38.87 26.92 30.43 37.41
43.17 42.29 41.81 42.83 43.43 43.91 44.09 44.24 44.69 45.28 45.82 45.19 43.83 47.14 43.87 36.42 37.46 42.64 43.16 38.51 37.88 37.49 32.24 35.72 34.36 35.67 34.97 30.97 30.20 30.98 30.45 32.60 31.70 32.67 29.06 27.24 26.66 27.07 29.67 26.01 23.73 38.83 36.91 31.38 36.15 39.05 38.74
42.76 42.74 42.94 42.79 42.78 44.65 44.57 44.03 44.35 45.80 45.59 45.02 40.58 45.93 46.39 38.98 37.20 41.97 41.76 43.98 42.53 41.96 37.85 38.05 36.71 36.77 37.67 34.66 35.33 34.66 31.81 34.31 32.79 27.13 35.04 28.82 32.66 30.60 31.68 31.87 38.50 39.91 39.10 40.50 39.99 38.49 38.86
MSLP
1017.88 1017.82 1017.76 1017.63 1017.76 1017.94 1018.08 1018.24 1018.61 1018.60 1018.85 1019.34 1019.37 1019.35 1019.75 1020.02 1020.10 1019.85 1019.81 1019.54 1019.14 1019.00 1018.84 1018.74 1018.39 1018.08 1016.84 1014.30 1012.07 1013.09 1013.70 1013.65 1013.12 1012.61 1011.70 1011.04 1010.57 1009.81 1009.14 1008.75 1008.91 1008.81 1008.32 1009.22 1009.45 1010.03 1009.84
1017.82 1017.96 1017.86 1017.61 1017.64 1017.40 1017.48 1017.76 1017.90 1018.28 1018.46 1018.70 1019.02 1019.05 1019.26 1019.78 1019.86 1019.85 1019.73 1019.56 1019.24 1018.89 1018.72 1018.55 1018.12 1018.17 1016.44 1013.43 1012.20 1012.52 1012.81 1012.84 1012.34 1012.21 1011.74 1011.32 1010.68 1010.53 1009.76 1009.67 1009.53 1009.23 1009.31 1009.18 1009.23 1009.50 1009.90
1017.82 1017.78 1017.74 1017.93 1017.63 1017.47 1017.15 1017.13 1017.41 1017.63 1017.87 1018.21 1018.56 1018.68 1018.73 1019.18 1019.73 1019.61 1019.36 1019.57 1019.52 1019.02 1018.42 1018.35 1018.05 1017.58 1015.18 1012.74 1012.11 1012.28 1012.66 1012.42 1012.24 1012.27 1011.76 1011.56 1011.46 1011.15 1010.36 1010.03 1010.28 1009.78 1009.52 1008.58 1008.79 1009.26 1009.83
1017.46 1017.66 1017.60 1017.61 1017.64 1017.46 1017.25 1017.12 1016.87 1017.08 1017.23 1017.40 1017.98 1018.29 1018.56 1018.66 1019.25 1019.32 1019.33 1019.19 1019.30 1019.15 1018.52 1018.17 1017.68 1016.87 1013.89 1012.42 1012.29 1012.70 1012.03 1012.31 1012.43 1012.57 1012.29 1012.04 1011.97 1011.29 1011.04 1010.87 1010.45 1009.72 1009.10 1007.92 1007.70 1009.31 1009.78
1017.30 1017.25 1017.49 1017.47 1017.28 1017.34 1017.31 1017.15 1016.74 1016.80 1016.73 1016.95 1017.05 1017.72 1017.92 1018.28 1018.84 1019.07 1019.20 1018.83 1019.00 1018.88 1018.38 1017.97 1017.23 1015.56 1013.03 1013.11 1012.30 1012.32 1011.97 1011.63 1012.33 1012.68 1012.38 1012.49 1012.06 1011.31 1011.44 1010.63 1009.46 1008.67 1007.74 1007.15 1007.53 1008.78 1009.69
1016.88 1016.85 1016.94 1017.26 1017.21 1017.03 1016.84 1016.86 1016.94 1016.56 1016.51 1016.52 1016.66 1016.82 1017.58 1017.86 1018.41 1019.00 1019.10 1018.88 1017.99 1018.50 1017.84 1016.77 1015.84 1015.06 1012.47 1011.71 1011.50 1011.89 1012.26 1011.90 1012.11 1012.46 1012.40 1012.12 1011.29 1010.78 1010.22 1009.62 1008.50 1007.90 1007.69 1007.78 1008.26 1008.59 1009.19
1016.62 1016.48 1016.58 1016.63 1016.92 1016.86 1016.79 1016.45 1016.62 1016.42 1016.51 1016.26 1016.26 1016.48 1016.97 1017.35 1018.04 1018.79 1019.40 1018.72 1017.85 1017.09 1015.92 1013.62 1012.02 1011.59 1011.02 1011.48 1012.00 1011.88 1012.08 1012.16 1011.89 1011.90 1011.45 1011.27 1010.53 1009.47 1008.76 1009.49 1010.04 1009.76 1009.26 1008.77 1008.44 1008.84 1009.72
1015.74 1016.10 1016.24 1016.19 1016.20 1016.36 1016.20 1016.29 1016.11 1016.02 1016.15 1016.31 1016.24 1015.97 1016.46 1017.10 1017.96 1018.51 1019.13 1018.76 1018.11 1018.09 1014.48 1012.65 1012.08 1011.18 1011.08 1011.43 1011.42 1011.37 1011.72 1011.79 1011.62 1010.83 1010.82 1011.05 1010.08 1009.30 1010.40 1010.93 1010.88 1010.45 1009.98 1009.24 1009.24 1009.55 1009.81
1015.19 1015.17 1015.37 1015.73 1015.81 1015.61 1015.78 1015.92 1015.80 1015.71 1015.51 1016.05 1015.89 1015.97 1016.11 1017.03 1018.12 1018.64 1018.54 1018.36 1018.40 1017.89 1015.86 1012.36 1010.73 1010.84 1010.45 1010.84 1010.43 1010.46 1011.30 1011.13 1010.80 1010.37 1010.56 1010.07 1009.84 1010.66 1011.03 1011.45 1011.15 1010.54 1010.50 1010.25 1010.45 1010.01 1009.06
1014.50 1014.69 1014.65 1014.71 1015.17 1015.28 1015.07 1015.46 1015.58 1015.32 1015.26 1015.49 1015.61 1015.74 1016.08 1016.96 1018.63 1018.39 1018.66 1018.46 1018.76 1018.77 1016.97 1011.70 1009.63 1009.23 1009.75 1010.30 1009.79 1009.66 1010.48 1010.67 1010.46 1009.97 1010.30 1010.16 1010.80 1011.52 1011.60 1011.48 1011.86 1010.79 1011.54 1011.68 1010.91 1009.98 1008.31
1013.76 1013.81 1014.10 1014.16 1014.40 1014.43 1014.78 1014.68 1015.02 1015.19 1014.95 1015.22 1015.31 1015.48 1016.15 1015.60 1016.37 1018.02 1018.05 1017.91 1018.55 1019.44 1016.51 1010.93 1009.20 1008.73 1008.43 1009.48 1008.09 1009.32 1009.90 1010.43 1010.16 1010.22 1010.80 1010.08 1011.15 1011.69 1011.68 1011.61 1012.48 1011.54 1012.43 1012.03 1011.37 1010.28 1009.04
1013.17 1013.17 1013.28 1013.42 1013.45 1014.01 1013.82 1014.33 1014.39 1014.88 1014.71 1014.91 1015.06 1015.33 1016.33 1016.62 1016.82 1017.47 1017.70 1017.95 1018.73 1018.89 1014.97 1011.67 1009.59 1009.67 1009.45 1009.16 1008.97 1008.66 1010.03 1010.64 1010.32 1010.19 1011.10 1010.45 1011.46 1011.79 1011.63 1012.78 1013.04 1012.79 1012.33 1011.38 1010.74 1010.10 1008.36
1012.53 1012.40 1012.49 1012.55 1012.78 1013.03 1013.11 1013.66 1013.77 1014.16 1014.40 1014.60 1014.80 1014.98 1015.97 1016.15 1016.31 1016.96 1017.61 1018.18 1018.62 1016.26 1013.50 1011.34 1009.37 1009.41 1009.01 1008.42 1009.06 1009.09 1009.54 1010.00 1009.52 1010.04 1010.27 1011.37 1011.89 1012.22 1012.87 1012.70 1013.22 1012.89 1011.85 1010.10 1009.65 1008.76 1007.22
1011.60 1011.57 1011.78 1011.81 1011.98 1012.17 1012.33 1012.73 1013.13 1013.37 1013.81 1014.05 1014.28 1014.61 1015.10 1015.50 1015.85 1016.38 1016.75 1018.15 1015.84 1012.73 1011.19 1009.83 1008.78 1009.29 1008.47 1008.21 1008.51 1009.08 1008.81 1009.25 1009.61 1008.84 1008.52 1010.04 1011.22 1011.96 1012.55 1012.21 1011.80 1012.31 1012.08 1010.60 1009.87 1008.47 1007.40
1010.56 1010.58 1010.64 1010.88 1011.02 1011.09 1011.42 1011.76 1012.21 1012.67 1013.16 1013.52 1013.93 1013.97 1014.66 1015.12 1015.64 1015.99 1015.92 1015.57 1013.02 1011.48 1009.98 1008.74 1009.09 1008.73 1008.13 1007.60 1007.64 1009.01 1008.40 1008.67 1008.65 1008.92 1008.71 1008.87 1010.00 1011.79 1012.58 1012.97 1012.86 1012.62 1012.62 1012.34 1011.97 1010.53 1009.47
1009.43 1009.57 1009.68 1009.71 1009.80 1010.02 1010.45 1010.91 1011.14 1011.81 1012.45 1012.97 1013.40 1013.68 1014.03 1014.60 1015.42 1015.69 1015.11 1013.29 1012.11 1011.05 1009.69 1008.27 1008.31 1008.00 1007.18 1006.67 1007.82 1008.42 1008.23 1007.83 1008.23 1009.21 1009.42 1009.22 1010.48 1012.13 1013.22 1013.59 1013.58 1012.81 1012.88 1013.26 1012.59 1011.03 1008.93
1008.44 1008.49 1008.49 1008.53 1008.64 1008.95 1009.38 1009.71 1010.28 1010.97 1011.64 1012.32 1013.17 1013.41 1013.46 1014.49 1015.27 1015.41 1013.46 1012.28 1011.37 1010.52 1009.08 1008.70 1007.63 1007.59 1007.23 1006.82 1007.70 1008.38 1007.66 1008.15 1008.16 1009.63 1010.32 1010.19 1010.58 1012.07 1013.48 1012.82 1012.28 1013.41 1013.21 1013.32 1012.75 1011.72 1010.52
1007.14 1007.09 1007.17 1007.17 1007.28 1007.49 1007.80 1008.24 1008.95 1009.80 1010.74 1011.85 1012.17 1012.34 1013.23 1013.78 1014.59 1013.58 1012.42 1011.35 1010.68 1009.21 1008.97 1008.55 1008.40 1007.86 1007.95 1007.80 1008.35 1008.89 1008.35 1008.63 1008.96 1009.88 1010.35 1010.94 1011.26 1011.77 1012.50 1012.16 1012.26 1012.28 1012.85 1013.16 1013.00 1012.13 1011.86
1005.67 1005.53 1005.43 1005.49 1005.52 1005.71 1005.82 1006.43 1007.47 1008.61 1009.75 1010.50 1010.42 1011.92 1012.32 1011.93 1011.93 1011.46 1010.87 1010.31 1009.57 1008.70 1008.06 1008.40 1008.37 1008.63 1008.57 1008.82 1009.48 1010.02 1009.37 1009.43 1009.57 1010.11 1010.39 1011.63 1011.21 1011.32 1012.70 1013.40 1013.11 1012.66 1012.90 1013.30 1013.37 1013.67 1012.72
1004.05 1003.83 1003.62 1003.49 1003.54 1003.49 1003.99 1004.87 1006.00 1007.24 1008.28 1009.64 1009.76 1010.52 1010.90 1010.48 1009.18 1009.26 1009.28 1008.91 1008.30 1007.79 1007.26 1007.26 1006.92 1007.67 1008.31 1009.37 1010.25 1009.91 1009.91 1010.43 1010.23 1010.59 1011.51 1011.87 1011.26 1011.35 1011.02 1010.39 1011.21 1012.23 1012.36 1013.19 1013.85 1013.77 1012.73
1002.55 1002.06 1001.60 1001.47 1001.36 1001.81 1002.40 1003.22 1004.43 1005.38 1006.39 1007.72 1006.74 1006.87 1006.44 1007.20 1007.40 1006.87 1007.05 1006.71 1006.82 1006.68 1006.93 1007.13 1006.70 1006.67 1007.00 1008.81 1009.59 1009.16 1010.11 1010.74 1011.28 1011.63 1012.31 1012.01 1011.72 1012.11 1011.89 1011.26 1011.19 1011.62 1012.25 1013.06 1013.72 1014.06 1013.92
1000.71 999.89 999.52 999.74 999.95 1000.38 1000.47 1001.00 1001.98 1003.46 1005.47 1004.52 1003.98 1003.79 1003.87 1003.43 1005.78 1006.40 1005.91 1005.60 1005.40 1005.73 1006.26 1005.92 1005.59 1005.89 1006.29 1007.48 1008.03 1008.36 1010.01 1010.65 1010.86 1012.20 1012.36 1012.47 1011.73 1012.16 1012.22 1011.98 1011.63 1011.66 1012.48 1013.33 1013.94 1014.10 1014.03
999.11 998.29 998.28 998.59 998.89 998.71 998.04 997.13 995.95 996.66 1001.60 1000.32 1000.75 1002.04 1001.71 1002.53 1003.73 1004.96 1003.50 1003.01 1003.60 1004.94 1005.14 1004.99 1005.26 1005.75 1006.22 1006.55 1007.80 1008.99 1010.76 1010.98 1010.94 1011.55 1011.79 1012.26 1012.24 1012.35 1011.60 1011.77 1011.88 1012.05 1012.12 1012.73 1013.77 1014.27 1014.75
997.69 997.40 997.66 997.96 997.93 997.01 995.17 991.58 985.31 986.86 992.07 994.99 996.85 998.74 999.49 999.48 1000.91 1000.58 1002.45 1003.24 1003.38 1003.86 1004.55 1004.55 1005.34 1006.11 1007.62 1007.49 1008.61 1010.73 1011.62 1011.08 1011.17 1011.61 1011.77 1012.01 1012.19 1012.15 1011.59 1012.12 1011.95 1011.47 1011.87 1011.70 1012.80 1014.18 1014.83
996.96 997.18 997.40 997.69 996.91 995.64 992.93 988.74 984.34 986.82 991.34 994.28 995.69 996.18 996.88 997.83 999.18 1001.52 1001.85 1002.59 1003.46 1004.28 1005.00 1004.94 1005.72 1006.91 1007.88 1008.25 1010.21 1011.84 1012.29 1012.17 1012.05 1011.69 1011.95 1011.97 1012.05 1012.17 1011.76 1011.79 1011.59 1012.12 1012.26 1012.14 1012.36 1013.49 1014.12
996.96 997.11 997.45 997.22 996.11 994.86 992.94 990.34 988.40 991.12 993.18 994.22 995.05 995.16 996.04 997.45 998.07 999.52 1000.79 1001.98 1002.86 1004.59 1005.87 1006.06 1007.32 1007.83 1008.30 1008.60 1009.55 1009.98 1010.72 1011.25 1012.15 1012.20 1012.44 1012.48 1012.41 1012.29 1012.17 1011.62 1011.39 1011.15 1012.13 1013.23 1013.44 1013.85 1014.96
997.15 997.23 997.33 996.85 995.71 994.88 993.72 992.99 992.25 992.51 993.25 994.24 995.91 995.53 995.79 998.27 998.54 999.21 1000.04 1001.21 1002.94 1004.29 1005.38 1006.86 1007.53 1008.69 1008.88 1008.57 1008.94 1009.30 1009.56 1009.90 1010.44 1011.05 1012.07 1012.40 1012.65 1012.26 1011.89 1011.95 1011.70 1012.03 1013.31 1013.69 1013.92 1014.98 1015.98
997.41 997.52 997.40 996.74 995.98 995.24 994.33 994.07 993.61 993.90 994.32 994.42 996.76 996.80 996.63 999.42 1001.01 1000.46 1001.08 1002.04 1003.19 1003.42 1003.85 1006.59 1008.06 1008.24 1008.39 1008.26 1008.47 1008.55 1008.58 1008.56 1009.33 1009.87 1010.89 1011.49 1012.02 1012.09 1011.99 1011.93 1011.95 1012.89 1013.76 1013.87 1014.70 1015.42 1016.39
997.76 997.64 997.40 996.98 996.11 995.51 995.04 994.84 994.84 995.23 995.31 995.97 997.58 998.17 998.40 999.90 1002.77 1003.13 1003.57 1003.54 1003.64 1003.29 1003.78 1005.46 1005.87 1006.38 1006.99 1007.48 1007.51 1007.80 1007.94 1008.39 1008.74 1009.64 1010.86 1011.24 1011.08 1011.26 1011.85 1011.73 1012.76 1013.20 1013.52 1014.61 1015.06 1015.51 1016.62
Wind_Speed
8 9 11 15 17 16 17 17 16 15 15 14 13 12 11 10 10 10 11 11 11 12 14 16 18 19 12 9 6 12 4 7 10 6 7 6 10 8 13 5 3 10 5 3 3 5 6
8 10 9 6 10 17 18 17 16 15 16 15 14 13 12 11 11 11 11 12 12 12 13 15 15 17 13 15 5 7 4 4 7 6 4 6 5 4 7 8 9 5 6 9 7 6 6
9 8 9 8 6 10 13 17 16 16 17 16 16 14 14 13 11 11 11 11 13 13 11 14 12 8 13 14 1 7 5 7 2 6 8 1 4 7 2 5 3 8 11 13 12 5 7
10 10 10 9 8 8 8 9 16 18 17 17 16 16 14 13 12 10 10 8 11 16 15 14 6 9 9 4 6 7 7 6 4 3 6 1 4 6 8 3 8 10 10 14 12 7 5
12 11 11 10 9 8 8 9 8 12 18 18 18 17 16 15 13 9 9 7 11 15 12 9 8 8 13 5 9 10 8 8 6 4 3 4 5 6 4 11 11 12 13 8 2 7 2
14 13 12 13 13 12 12 9 11 11 11 17 18 18 17 15 12 8 7 8 8 11 8 9 9 7 13 11 9 8 6 6 8 7 8 10 8 9 11 10 11 10 6 3 8 5 8
16 16 14 14 14 14 15 13 13 11 10 12 18 17 17 15 15 8 4 6 7 8 15 15 9 11 4 4 7 11 10 9 9 12 14 11 10 13 9 4 7 6 8 12 11 8 9
15 16 17 16 16 16 16 15 13 13 10 9 13 17 17 15 15 13 1 3 12 14 12 22 21 18 5 12 10 13 12 11 10 13 11 6 14 2 5 3 5 7 10 13 7 2 12
17 16 16 18 18 17 17 15 14 13 11 8 6 13 16 16 17 8 7 7 16 18 5 13 20 20 18 15 17 17 15 16 12 14 12 16 10 10 7 7 8 11 7 7 10 14 19
17 17 17 18 18 18 16 15 15 13 12 8 6 7 15 23 7 6 4 5 8 4 5 8 17 14 25 14 15 19 19 13 10 14 14 13 11 8 8 10 5 11 6 6 11 11 9
18 18 19 18 18 18 17 15 15 16 13 10 6 6 25 24 10 6 9 12 8 5 5 10 13 4 18 19 10 16 17 15 16 10 8 5 11 13 13 7 4 3 3 9 12 13 13
19 19 20 20 20 19 17 17 16 15 12 9 8 8 25 5 4 9 14 13 5 4 9 6 7 12 21 22 14 20 15 13 13 12 14 8 5 9 7 6 6 4 10 14 10 9 10
18 19 20 20 21 20 19 19 17 16 15 12 12 10 20 8 7 15 14 4 2 7 4 9 9 18 24 19 17 19 21 20 12 14 13 9 14 7 6 11 7 10 11 7 11 9 7
21 18 19 21 22 22 21 20 19 18 16 15 13 10 17 6 14 17 6 4 8 11 18 4 13 18 23 22 20 21 20 20 24 19 10 14 10 16 14 10 2 4 7 6 6 8 9
25 23 23 21 20 23 23 21 20 18 16 15 13 9 4 6 16 10 8 8 6 8 12 12 15 20 22 20 10 20 22 22 23 15 13 14 8 10 7 6 8 9 7 6 3 11 6
26 25 24 23 21 21 23 23 22 19 18 15 4 6 4 17 15 10 7 10 10 11 13 17 23 18 22 24 15 20 20 18 20 19 8 6 6 12 8 7 5 7 8 5 5 6 7
26 26 25 25 26 25 24 24 24 21 19 20 8 3 7 17 10 6 9 7 8 15 13 19 20 16 21 18 20 23 14 5 17 17 14 9 6 12 8 12 11 7 9 6 5 5 5
27 26 27 27 29 28 30 29 26 22 22 20 7 8 12 15 7 4 7 12 14 16 22 13 9 12 13 16 20 19 16 10 15 17 18 10 7 12 17 6 7 13 11 11 4 8 7
28 28 30 30 29 33 31 27 25 24 26 6 7 5 12 16 13 11 16 16 18 18 24 21 18 23 18 20 10 20 19 12 17 18 14 12 8 12 7 5 8 9 10 12 8 5 10
27 30 31 32 34 31 26 26 27 29 31 15 7 6 5 11 18 21 23 16 16 21 23 19 18 20 19 16 15 14 17 9 16 17 9 6 7 5 8 4 11 11 17 15 11 6 9
29 30 31 35 28 25 27 25 24 25 34 18 10 8 12 15 17 26 30 23 24 15 18 23 18 22 20 15 22 19 18 15 15 13 9 7 7 8 4 4 6 11 12 16 12 13 11
29 34 29 24 21 23 25 30 34 34 35 16 12 12 19 19 29 13 26 26 30 26 25 29 17 23 24 20 20 21 17 18 11 11 10 5 4 8 10 8 7 9 11 13 16 15 16
30 21 19 14 17 20 28 38 49 50 49 11 15 19 16 18 29 20 25 35 34 25 26 28 26 23 23 20 16 16 16 12 9 16 15 10 7 8 9 7 7 9 17 16 7 11 12
24 21 11 10 15 21 27 34 33 54 62 15 17 15 18 17 24 30 33 26 27 30 19 21 21 18 8 15 18 15 14 9 13 15 12 12 11 5 5 8 9 2 3 12 16 10 12
14 8 6 6 15 13 17 27 29 58 55 15 17 16 14 17 21 23 27 25 21 23 17 23 21 14 19 20 18 11 8 8 10 11 11 11 9 5 6 12 4 3 5 5 9 9 9
8 6 7 8 18 5 14 23 30 41 25 12 6 10 12 13 20 27 28 27 18 16 14 14 9 19 12 7 10 10 9 12 12 10 9 8 9 7 8 10 7 8 12 4 2 8 9
7 8 8 12 9 12 15 17 22 24 20 9 5 1 11 6 14 25 22 24 18 17 10 15 13 15 11 7 10 9 9 14 11 14 15 10 10 11 9 8 3 9 10 6 6 5 6
9 8 4 7 9 14 13 16 21 20 18 11 7 8 7 7 6 12 25 19 18 13 15 22 13 10 9 9 7 6 6 12 10 13 14 11 10 9 11 10 11 12 10 5 7 7 6
12 6 11 9 11 15 12 13 15 24 21 15 9 7 7 10 6 16 14 5 5 14 16 15 10 15 8 10 7 6 6 5 12 9 14 8 6 8 6 3 10 12 7 7 5 5 5
Wind_Direction
332 335 344 246 229 227 225 224 225 218 216 222 223 218 230 246 262 277 289 296 307 317 323 321 324 320 301 236 266 120 172 201 249 260 277 267 264 263 260 266 259 244 270 249 253 267 295
315 342 348 350 319 237 229 230 222 221 217 217 220 216 215 227 244 265 282 294 305 308 317 316 322 319 258 263 97 142 200 224 258 260 252 258 299 320 300 269 256 44 278 262 260 250 284
295 308 303 322 324 13 267 231 225 222 219 218 217 218 212 212 232 247 268 293 302 306 311 306 314 298 274 267 204 175 204 239 261 284 269 245 287 246 49 231 267 264 264 247 221 229 279
277 269 278 285 295 321 306 333 240 227 221 214 217 215 212 211 218 228 259 283 304 307 305 299 284 275 267 98 251 231 193 186 211 227 275 42 268 282 262 35 231 248 239 261 130 166 106
300 299 298 294 289 285 294 302 315 270 233 221 212 216 207 206 209 218 256 285 297 295 294 272 247 219 270 116 206 222 229 192 172 200 191 191 234 264 199 236 236 207 262 208 195 144 242
285 284 288 289 291 291 287 278 292 298 289 232 217 209 207 199 192 214 259 276 282 297 229 233 257 265 223 227 183 187 201 186 193 185 184 208 215 228 214 232 252 326 204 196 269 166 331
277 281 276 281 281 287 287 282 282 276 291 271 225 214 208 198 177 161 307 258 236 207 217 225 197 228 166 161 152 202 182 189 204 207 231 208 232 222 262 69 347 314 291 279 278 17 304
260 268 274 275 275 275 283 280 276 272 259 282 256 216 203 190 160 140 121 234 32 339 286 221 253 232 223 181 190 205 182 204 206 219 211 196 235 174 90 160 249 260 274 277 308 264 315
253 254 262 272 276 270 280 278 279 275 258 257 286 236 192 157 132 127 186 203 17 354 299 281 230 229 199 206 220 194 199 214 214 227 204 244 45 120 174 195 237 243 273 312 302 311 280
264 260 258 263 267 271 268 273 275 274 275 239 265 262 165 129 136 142 205 101 63 2 309 260 210 235 210 196 235 230 188 211 222 236 227 245 131 191 200 228 241 266 121 283 292 303 299
266 261 262 261 260 260 260 261 265 270 266 233 244 250 154 162 126 172 125 107 89 60 253 315 166 144 186 187 136 200 180 204 227 213 207 225 182 203 215 212 197 32 298 285 286 281 285
271 268 262 259 257 259 255 253 250 257 254 230 232 209 172 89 99 128 126 112 89 120 230 240 152 206 174 203 180 152 183 211 236 208 222 254 192 210 234 146 224 320 265 251 259 251 248
273 273 267 264 257 254 255 253 250 246 237 231 224 192 177 160 164 145 132 107 134 188 135 205 188 189 194 187 189 173 184 193 180 187 198 182 197 165 180 203 191 232 248 250 220 195 253
267 267 270 269 260 256 252 249 247 243 234 228 214 196 193 179 144 152 142 86 228 196 190 167 185 199 200 180 191 195 188 200 221 213 193 194 187 192 187 234 227 199 284 291 270 288 312
264 266 265 263 267 261 253 246 244 237 232 223 212 225 180 164 159 172 135 210 201 205 221 176 183 194 203 185 182 198 211 217 206 214 230 191 169 131 179 166 214 146 231 48 271 232 248
264 266 265 266 265 261 257 251 238 227 228 207 197 216 199 161 165 168 212 218 212 225 215 189 196 196 198 188 186 198 197 213 202 204 221 228 141 186 154 205 186 256 118 198 188 253 261
268 265 265 261 261 259 261 252 235 225 216 195 215 218 153 160 147 191 215 212 205 216 211 212 210 202 221 191 195 200 206 220 182 192 202 187 200 168 154 209 179 168 201 225 298 268 283
266 261 260 261 257 256 259 247 227 218 214 197 194 210 165 155 183 204 211 192 220 211 205 203 244 220 231 203 203 215 216 183 175 181 194 183 229 169 213 133 283 198 199 208 238 178 226
264 263 257 259 255 263 247 230 220 215 198 190 204 161 180 166 207 199 213 216 221 215 196 189 199 211 208 211 189 228 224 192 181 185 176 181 203 161 180 193 211 228 216 213 221 263 257
265 266 259 255 265 244 233 231 228 219 208 197 187 160 191 201 203 204 201 211 204 209 213 203 198 184 191 189 194 203 207 196 181 187 97 178 204 229 233 88 138 197 208 206 189 230 250
269 270 257 263 242 241 244 237 233 230 206 191 191 184 179 187 200 211 202 200 198 177 200 205 208 201 182 182 197 199 167 172 186 123 172 209 202 205 217 161 163 182 200 214 211 222 264
281 272 252 240 246 260 255 258 247 225 219 199 192 194 190 201 199 197 204 208 198 187 184 198 192 191 181 191 196 185 166 170 168 174 174 215 192 200 219 219 207 219 214 218 225 239 252
287 260 242 245 268 272 273 271 261 231 191 199 189 203 194 207 189 194 203 199 197 188 194 192 203 188 191 192 183 149 177 160 164 176 183 178 182 201 230 199 211 245 234 224 204 225 242
258 264 232 260 272 281 285 291 241 178 177 177 181 184 197 193 184 197 201 202 203 198 191 188 188 167 128 116 97 126 189 183 169 181 177 189 199 195 206 158 217 101 303 223 200 208 240
241 206 217 229 263 293 329 338 158 164 168 180 166 191 177 196 187 186 196 193 188 185 186 187 171 140 152 122 111 112 135 135 179 179 184 204 188 190 213 209 135 174 203 164 189 217 199
183 177 144 270 288 32 26 36 83 137 155 147 158 163 184 170 193 176 172 174 164 156 156 139 104 150 159 151 160 163 172 165 187 171 191 200 210 218 200 231 221 77 120 107 129 244 144
146 155 172 280 41 40 61 67 76 77 81 96 70 344 136 97 172 175 172 168 155 155 130 153 141 161 201 159 171 177 195 186 171 181 185 179 192 210 207 221 132 139 138 160 216 90 120
131 107 176 44 357 24 58 88 91 95 83 81 62 34 104 81 42 147 150 148 156 160 148 147 154 182 179 170 185 186 180 185 181 177 175 171 183 200 224 219 231 134 152 231 87 123 123
112 92 60 36 337 5 75 96 90 114 100 97 95 63 72 75 92 81 70 146 59 160 136 158 136 152 158 182 185 180 177 166 174 151 171 186 215 174 220 213 118 163 94 109 93 102 110